owner,sensor,date,latitude,longitude,relative_humidity,qcFlag 
COMPS,ioos:station:USF.COMPS:BGC:1,2014-12-01T00:00:00Z,26.4040,-81.8810,48.35,1111122 
COMPS,ioos:station:USF.COMPS:BGC:1,2014-12-01T00:06:00Z,26.4040,-81.8810,47.66,1111122 
COMPS,ioos:station:USF.COMPS:BGC:1,2014-12-01T00:12:00Z,26.4040,-81.8810,49.53,1111122 
COMPS,ioos:station:USF.COMPS:BGC:1,2014-12-01T00:18:00Z,26.4040,-81.8810,50.41,1111122 
COMPS,ioos:station:USF.COMPS:BGC:1,2014-12-01T00:24:00Z,26.4040,-81.8810,50.32,1111122 
COMPS,ioos:station:USF.COMPS:BGC:1,2014-12-01T00:30:00Z,26.4040,-81.8810,50.18,1111122 
COMPS,ioos:station:USF.COMPS:BGC:1,2014-12-01T00:36:00Z,26.4040,-81.8810,50.67,1111122 
COMPS,ioos:station:USF.COMPS:BGC:1,2014-12-01T00:42:00Z,26.4040,-81.8810,50.86,1111122 
COMPS,ioos:station:USF.COMPS:BGC:1,2014-12-01T00:48:00Z,26.4040,-81.8810,51.35,1111122 
COMPS,ioos:station:USF.COMPS:BGC:1,2014-12-01T00:54:00Z,26.4040,-81.8810,51.76,1111122 
COMPS,ioos:station:USF.COMPS:BGC:1,2014-12-01T01:00:00Z,26.4040,-81.8810,53.35,1111122 
COMPS,ioos:station:USF.COMPS:BGC:1,2014-12-01T01:06:00Z,26.4040,-81.8810,54.14,1111122 
COMPS,ioos:station:USF.COMPS:BGC:1,2014-12-01T01:12:00Z,26.4040,-81.8810,54.8,1111122 
COMPS,ioos:station:USF.COMPS:BGC:1,2014-12-01T01:18:00Z,26.4040,-81.8810,55.0,1111122 
COMPS,ioos:station:USF.COMPS:BGC:1,2014-12-01T01:24:00Z,26.4040,-81.8810,55.23,1111122 
COMPS,ioos:station:USF.COMPS:BGC:1,2014-12-01T01:30:00Z,26.4040,-81.8810,55.77,1111122 
COMPS,ioos:station:USF.COMPS:BGC:1,2014-12-01T01:36:00Z,26.4040,-81.8810,55.77,1111122 
COMPS,ioos:station:USF.COMPS:BGC:1,2014-12-01T01:42:00Z,26.4040,-81.8810,55.88,1111122 
COMPS,ioos:station:USF.COMPS:BGC:1,2014-12-01T01:48:00Z,26.4040,-81.8810,56.03,1111122 
COMPS,ioos:station:USF.COMPS:BGC:1,2014-12-01T01:54:00Z,26.4040,-81.8810,56.32,1111122 
COMPS,ioos:station:USF.COMPS:BGC:1,2014-12-01T02:00:00Z,26.4040,-81.8810,56.59,1111122 
COMPS,ioos:station:USF.COMPS:BGC:1,2014-12-01T02:06:00Z,26.4040,-81.8810,57.14,1111122 
COMPS,ioos:station:USF.COMPS:BGC:1,2014-12-01T02:12:00Z,26.4040,-81.8810,57.12,1111122 
COMPS,ioos:station:USF.COMPS:BGC:1,2014-12-01T02:18:00Z,26.4040,-81.8810,57.3,1111122 
COMPS,ioos:station:USF.COMPS:BGC:1,2014-12-01T02:24:00Z,26.4040,-81.8810,57.32,1111122 
COMPS,ioos:station:USF.COMPS:BGC:1,2014-12-01T02:30:00Z,26.4040,-81.8810,57.0,1111122 
COMPS,ioos:station:USF.COMPS:BGC:1,2014-12-01T02:36:00Z,26.4040,-81.8810,56.63,1111122 
COMPS,ioos:station:USF.COMPS:BGC:1,2014-12-01T02:42:00Z,26.4040,-81.8810,57.07,1111122 
COMPS,ioos:station:USF.COMPS:BGC:1,2014-12-01T02:48:00Z,26.4040,-81.8810,57.2,1111122 
COMPS,ioos:station:USF.COMPS:BGC:1,2014-12-01T02:54:00Z,26.4040,-81.8810,58.44,1111122 
COMPS,ioos:station:USF.COMPS:BGC:1,2014-12-01T03:00:00Z,26.4040,-81.8810,59.27,1111122 
COMPS,ioos:station:USF.COMPS:BGC:1,2014-12-01T03:06:00Z,26.4040,-81.8810,58.91,1111122 
COMPS,ioos:station:USF.COMPS:BGC:1,2014-12-01T03:12:00Z,26.4040,-81.8810,59.05,1111122 
COMPS,ioos:station:USF.COMPS:BGC:1,2014-12-01T03:18:00Z,26.4040,-81.8810,60.01,1111122 
COMPS,ioos:station:USF.COMPS:BGC:1,2014-12-01T03:24:00Z,26.4040,-81.8810,62.6,1111122 
COMPS,ioos:station:USF.COMPS:BGC:1,2014-12-01T03:30:00Z,26.4040,-81.8810,62.62,1111122 
COMPS,ioos:station:USF.COMPS:BGC:1,2014-12-01T03:36:00Z,26.4040,-81.8810,63.63,1111122 
COMPS,ioos:station:USF.COMPS:BGC:1,2014-12-01T03:42:00Z,26.4040,-81.8810,64.42,1111122 
COMPS,ioos:station:USF.COMPS:BGC:1,2014-12-01T03:48:00Z,26.4040,-81.8810,65.01,1111122 
COMPS,ioos:station:USF.COMPS:BGC:1,2014-12-01T03:54:00Z,26.4040,-81.8810,65.18,1111122 
COMPS,ioos:station:USF.COMPS:BGC:1,2014-12-01T04:00:00Z,26.4040,-81.8810,64.68,1111122 
COMPS,ioos:station:USF.COMPS:BGC:1,2014-12-01T04:06:00Z,26.4040,-81.8810,63.64,1111122 
COMPS,ioos:station:USF.COMPS:BGC:1,2014-12-01T04:12:00Z,26.4040,-81.8810,65.2,1111122 
COMPS,ioos:station:USF.COMPS:BGC:1,2014-12-01T04:18:00Z,26.4040,-81.8810,65.97,1111122 
COMPS,ioos:station:USF.COMPS:BGC:1,2014-12-01T04:24:00Z,26.4040,-81.8810,65.9,1111122 
COMPS,ioos:station:USF.COMPS:BGC:1,2014-12-01T04:30:00Z,26.4040,-81.8810,65.7,1111122 
COMPS,ioos:station:USF.COMPS:BGC:1,2014-12-01T04:36:00Z,26.4040,-81.8810,65.91,1111122 
COMPS,ioos:station:USF.COMPS:BGC:1,2014-12-01T04:42:00Z,26.4040,-81.8810,66.1,1111122 
COMPS,ioos:station:USF.COMPS:BGC:1,2014-12-01T04:48:00Z,26.4040,-81.8810,66.59,1111122 
COMPS,ioos:station:USF.COMPS:BGC:1,2014-12-01T04:54:00Z,26.4040,-81.8810,67.1,1111122 
COMPS,ioos:station:USF.COMPS:BGC:1,2014-12-01T05:00:00Z,26.4040,-81.8810,66.05,1111122 
COMPS,ioos:station:USF.COMPS:BGC:1,2014-12-01T05:06:00Z,26.4040,-81.8810,65.43,1111122 
COMPS,ioos:station:USF.COMPS:BGC:1,2014-12-01T05:12:00Z,26.4040,-81.8810,64.87,1111122 
COMPS,ioos:station:USF.COMPS:BGC:1,2014-12-01T05:18:00Z,26.4040,-81.8810,65.83,1111122 
COMPS,ioos:station:USF.COMPS:BGC:1,2014-12-01T05:24:00Z,26.4040,-81.8810,66.3,1111122 
COMPS,ioos:station:USF.COMPS:BGC:1,2014-12-01T05:30:00Z,26.4040,-81.8810,66.23,1111122 
COMPS,ioos:station:USF.COMPS:BGC:1,2014-12-01T05:36:00Z,26.4040,-81.8810,66.29,1111122 
COMPS,ioos:station:USF.COMPS:BGC:1,2014-12-01T05:42:00Z,26.4040,-81.8810,66.56,1111122 
COMPS,ioos:station:USF.COMPS:BGC:1,2014-12-01T05:48:00Z,26.4040,-81.8810,66.46,1111122 
COMPS,ioos:station:USF.COMPS:BGC:1,2014-12-01T05:54:00Z,26.4040,-81.8810,66.1,1111122 
COMPS,ioos:station:USF.COMPS:BGC:1,2014-12-01T06:00:00Z,26.4040,-81.8810,65.15,1111122 
COMPS,ioos:station:USF.COMPS:BGC:1,2014-12-01T06:06:00Z,26.4040,-81.8810,63.89,1111122 
COMPS,ioos:station:USF.COMPS:BGC:1,2014-12-01T06:12:00Z,26.4040,-81.8810,63.86,1111122 
COMPS,ioos:station:USF.COMPS:BGC:1,2014-12-01T06:18:00Z,26.4040,-81.8810,64.15,1111122 
COMPS,ioos:station:USF.COMPS:BGC:1,2014-12-01T06:24:00Z,26.4040,-81.8810,64.41,1111122 
COMPS,ioos:station:USF.COMPS:BGC:1,2014-12-01T06:30:00Z,26.4040,-81.8810,64.01,1111122 
COMPS,ioos:station:USF.COMPS:BGC:1,2014-12-01T06:36:00Z,26.4040,-81.8810,64.11,1111122 
COMPS,ioos:station:USF.COMPS:BGC:1,2014-12-01T06:42:00Z,26.4040,-81.8810,65.26,1111122 
COMPS,ioos:station:USF.COMPS:BGC:1,2014-12-01T06:48:00Z,26.4040,-81.8810,65.77,1111122 
COMPS,ioos:station:USF.COMPS:BGC:1,2014-12-01T06:54:00Z,26.4040,-81.8810,66.06,1111122 
COMPS,ioos:station:USF.COMPS:BGC:1,2014-12-01T07:00:00Z,26.4040,-81.8810,66.82,1111122 
COMPS,ioos:station:USF.COMPS:BGC:1,2014-12-01T07:06:00Z,26.4040,-81.8810,66.81,1111122 
COMPS,ioos:station:USF.COMPS:BGC:1,2014-12-01T07:12:00Z,26.4040,-81.8810,67.06,1111122 
COMPS,ioos:station:USF.COMPS:BGC:1,2014-12-01T07:18:00Z,26.4040,-81.8810,67.76,1111122 
COMPS,ioos:station:USF.COMPS:BGC:1,2014-12-01T07:24:00Z,26.4040,-81.8810,68.4,1111122 
COMPS,ioos:station:USF.COMPS:BGC:1,2014-12-01T07:30:00Z,26.4040,-81.8810,69.05,1111122 
COMPS,ioos:station:USF.COMPS:BGC:1,2014-12-01T07:36:00Z,26.4040,-81.8810,69.19,1111122 
COMPS,ioos:station:USF.COMPS:BGC:1,2014-12-01T07:42:00Z,26.4040,-81.8810,69.47,1111122 
COMPS,ioos:station:USF.COMPS:BGC:1,2014-12-01T07:48:00Z,26.4040,-81.8810,69.59,1111122 
COMPS,ioos:station:USF.COMPS:BGC:1,2014-12-01T07:54:00Z,26.4040,-81.8810,70.33,1111122 
COMPS,ioos:station:USF.COMPS:BGC:1,2014-12-01T08:00:00Z,26.4040,-81.8810,71.13,1111122 
COMPS,ioos:station:USF.COMPS:BGC:1,2014-12-01T08:06:00Z,26.4040,-81.8810,71.73,1111122 
COMPS,ioos:station:USF.COMPS:BGC:1,2014-12-01T08:12:00Z,26.4040,-81.8810,71.64,1111122 
COMPS,ioos:station:USF.COMPS:BGC:1,2014-12-01T08:18:00Z,26.4040,-81.8810,71.54,1111122 
COMPS,ioos:station:USF.COMPS:BGC:1,2014-12-01T08:24:00Z,26.4040,-81.8810,71.74,1111122 
COMPS,ioos:station:USF.COMPS:BGC:1,2014-12-01T08:30:00Z,26.4040,-81.8810,71.42,1111122 
COMPS,ioos:station:USF.COMPS:BGC:1,2014-12-01T08:36:00Z,26.4040,-81.8810,71.87,1111122 
COMPS,ioos:station:USF.COMPS:BGC:1,2014-12-01T08:42:00Z,26.4040,-81.8810,72.39,1111122 
COMPS,ioos:station:USF.COMPS:BGC:1,2014-12-01T08:48:00Z,26.4040,-81.8810,72.91,1111122 
COMPS,ioos:station:USF.COMPS:BGC:1,2014-12-01T08:54:00Z,26.4040,-81.8810,72.58,1111122 
COMPS,ioos:station:USF.COMPS:BGC:1,2014-12-01T09:00:00Z,26.4040,-81.8810,72.95,1111122 
COMPS,ioos:station:USF.COMPS:BGC:1,2014-12-01T09:06:00Z,26.4040,-81.8810,73.03,1111122 
COMPS,ioos:station:USF.COMPS:BGC:1,2014-12-01T09:12:00Z,26.4040,-81.8810,73.11,1111122 
COMPS,ioos:station:USF.COMPS:BGC:1,2014-12-01T09:18:00Z,26.4040,-81.8810,72.97,1111122 
COMPS,ioos:station:USF.COMPS:BGC:1,2014-12-01T09:24:00Z,26.4040,-81.8810,72.68,1111122 
COMPS,ioos:station:USF.COMPS:BGC:1,2014-12-01T09:30:00Z,26.4040,-81.8810,73.19,1111122 
COMPS,ioos:station:USF.COMPS:BGC:1,2014-12-01T09:36:00Z,26.4040,-81.8810,73.16,1111122 
COMPS,ioos:station:USF.COMPS:BGC:1,2014-12-01T09:42:00Z,26.4040,-81.8810,72.97,1111122 
COMPS,ioos:station:USF.COMPS:BGC:1,2014-12-01T09:48:00Z,26.4040,-81.8810,73.02,1111122 
COMPS,ioos:station:USF.COMPS:BGC:1,2014-12-01T09:54:00Z,26.4040,-81.8810,73.1,1111122 
COMPS,ioos:station:USF.COMPS:BGC:1,2014-12-01T10:00:00Z,26.4040,-81.8810,71.69,1111122 
COMPS,ioos:station:USF.COMPS:BGC:1,2014-12-01T10:06:00Z,26.4040,-81.8810,70.36,1111122 
COMPS,ioos:station:USF.COMPS:BGC:1,2014-12-01T10:12:00Z,26.4040,-81.8810,69.56,1111122 
COMPS,ioos:station:USF.COMPS:BGC:1,2014-12-01T10:18:00Z,26.4040,-81.8810,68.88,1111122 
COMPS,ioos:station:USF.COMPS:BGC:1,2014-12-01T10:24:00Z,26.4040,-81.8810,69.16,1111122 
COMPS,ioos:station:USF.COMPS:BGC:1,2014-12-01T10:30:00Z,26.4040,-81.8810,69.32,1111122 
COMPS,ioos:station:USF.COMPS:BGC:1,2014-12-01T10:36:00Z,26.4040,-81.8810,69.31,1111122 
COMPS,ioos:station:USF.COMPS:BGC:1,2014-12-01T10:42:00Z,26.4040,-81.8810,69.13,1111122 
COMPS,ioos:station:USF.COMPS:BGC:1,2014-12-01T10:48:00Z,26.4040,-81.8810,68.94,1111122 
COMPS,ioos:station:USF.COMPS:BGC:1,2014-12-01T10:54:00Z,26.4040,-81.8810,68.67,1111122 
COMPS,ioos:station:USF.COMPS:BGC:1,2014-12-01T11:00:00Z,26.4040,-81.8810,68.02,1111122 
COMPS,ioos:station:USF.COMPS:BGC:1,2014-12-01T11:06:00Z,26.4040,-81.8810,67.24,1111122 
COMPS,ioos:station:USF.COMPS:BGC:1,2014-12-01T11:12:00Z,26.4040,-81.8810,67.08,1111122 
COMPS,ioos:station:USF.COMPS:BGC:1,2014-12-01T11:18:00Z,26.4040,-81.8810,66.81,1111122 
COMPS,ioos:station:USF.COMPS:BGC:1,2014-12-01T11:24:00Z,26.4040,-81.8810,67.18,1111122 
COMPS,ioos:station:USF.COMPS:BGC:1,2014-12-01T11:30:00Z,26.4040,-81.8810,66.16,1111122 
COMPS,ioos:station:USF.COMPS:BGC:1,2014-12-01T11:36:00Z,26.4040,-81.8810,65.07,1111122 
COMPS,ioos:station:USF.COMPS:BGC:1,2014-12-01T11:42:00Z,26.4040,-81.8810,65.38,1111122 
COMPS,ioos:station:USF.COMPS:BGC:1,2014-12-01T11:48:00Z,26.4040,-81.8810,65.85,1111122 
COMPS,ioos:station:USF.COMPS:BGC:1,2014-12-01T11:54:00Z,26.4040,-81.8810,65.84,1111122 
COMPS,ioos:station:USF.COMPS:BGC:1,2014-12-01T12:00:00Z,26.4040,-81.8810,65.06,1111122 
COMPS,ioos:station:USF.COMPS:BGC:1,2014-12-01T12:06:00Z,26.4040,-81.8810,65.34,1111122 
COMPS,ioos:station:USF.COMPS:BGC:1,2014-12-01T12:12:00Z,26.4040,-81.8810,65.93,1111122 
COMPS,ioos:station:USF.COMPS:BGC:1,2014-12-01T12:18:00Z,26.4040,-81.8810,66.41,1111122 
COMPS,ioos:station:USF.COMPS:BGC:1,2014-12-01T12:24:00Z,26.4040,-81.8810,66.1,1111122 
COMPS,ioos:station:USF.COMPS:BGC:1,2014-12-01T12:30:00Z,26.4040,-81.8810,65.56,1111122 
COMPS,ioos:station:USF.COMPS:BGC:1,2014-12-01T12:36:00Z,26.4040,-81.8810,65.59,1111122 
COMPS,ioos:station:USF.COMPS:BGC:1,2014-12-01T12:42:00Z,26.4040,-81.8810,65.33,1111122 
COMPS,ioos:station:USF.COMPS:BGC:1,2014-12-01T12:48:00Z,26.4040,-81.8810,65.18,1111122 
COMPS,ioos:station:USF.COMPS:BGC:1,2014-12-01T12:54:00Z,26.4040,-81.8810,64.89,1111122 
COMPS,ioos:station:USF.COMPS:BGC:1,2014-12-01T13:00:00Z,26.4040,-81.8810,64.54,1111122 
COMPS,ioos:station:USF.COMPS:BGC:1,2014-12-01T13:06:00Z,26.4040,-81.8810,64.05,1111122 
COMPS,ioos:station:USF.COMPS:BGC:1,2014-12-01T13:12:00Z,26.4040,-81.8810,63.63,1111122 
COMPS,ioos:station:USF.COMPS:BGC:1,2014-12-01T13:18:00Z,26.4040,-81.8810,63.16,1111122 
COMPS,ioos:station:USF.COMPS:BGC:1,2014-12-01T13:24:00Z,26.4040,-81.8810,62.76,1111122 
COMPS,ioos:station:USF.COMPS:BGC:1,2014-12-01T13:30:00Z,26.4040,-81.8810,61.97,1111122 
COMPS,ioos:station:USF.COMPS:BGC:1,2014-12-01T13:36:00Z,26.4040,-81.8810,61.46,1111122 
COMPS,ioos:station:USF.COMPS:BGC:1,2014-12-01T13:42:00Z,26.4040,-81.8810,61.42,1111122 
COMPS,ioos:station:USF.COMPS:BGC:1,2014-12-01T13:48:00Z,26.4040,-81.8810,60.46,1111122 
COMPS,ioos:station:USF.COMPS:BGC:1,2014-12-01T13:54:00Z,26.4040,-81.8810,59.87,1111122 
COMPS,ioos:station:USF.COMPS:BGC:1,2014-12-01T14:00:00Z,26.4040,-81.8810,59.32,1111122 
COMPS,ioos:station:USF.COMPS:BGC:1,2014-12-01T14:06:00Z,26.4040,-81.8810,58.44,1111122 
COMPS,ioos:station:USF.COMPS:BGC:1,2014-12-01T14:12:00Z,26.4040,-81.8810,57.97,1111122 
COMPS,ioos:station:USF.COMPS:BGC:1,2014-12-01T14:18:00Z,26.4040,-81.8810,57.37,1111122 
COMPS,ioos:station:USF.COMPS:BGC:1,2014-12-01T14:24:00Z,26.4040,-81.8810,56.9,1111122 
COMPS,ioos:station:USF.COMPS:BGC:1,2014-12-01T14:30:00Z,26.4040,-81.8810,56.34,1111122 
COMPS,ioos:station:USF.COMPS:BGC:1,2014-12-01T14:36:00Z,26.4040,-81.8810,56.0,1111122 
COMPS,ioos:station:USF.COMPS:BGC:1,2014-12-01T14:42:00Z,26.4040,-81.8810,55.37,1111122 
COMPS,ioos:station:USF.COMPS:BGC:1,2014-12-01T14:48:00Z,26.4040,-81.8810,54.78,1111122 
COMPS,ioos:station:USF.COMPS:BGC:1,2014-12-01T14:54:00Z,26.4040,-81.8810,54.54,1111122 
COMPS,ioos:station:USF.COMPS:BGC:1,2014-12-01T15:00:00Z,26.4040,-81.8810,54.4,1111122 
COMPS,ioos:station:USF.COMPS:BGC:1,2014-12-01T15:06:00Z,26.4040,-81.8810,53.83,1111122 
COMPS,ioos:station:USF.COMPS:BGC:1,2014-12-01T15:12:00Z,26.4040,-81.8810,53.36,1111122 
COMPS,ioos:station:USF.COMPS:BGC:1,2014-12-01T15:18:00Z,26.4040,-81.8810,52.18,1111122 
COMPS,ioos:station:USF.COMPS:BGC:1,2014-12-01T15:24:00Z,26.4040,-81.8810,51.27,1111122 
COMPS,ioos:station:USF.COMPS:BGC:1,2014-12-01T15:30:00Z,26.4040,-81.8810,51.1,1111122 
COMPS,ioos:station:USF.COMPS:BGC:1,2014-12-01T15:36:00Z,26.4040,-81.8810,51.06,1111122 
COMPS,ioos:station:USF.COMPS:BGC:1,2014-12-01T15:42:00Z,26.4040,-81.8810,49.99,1111122 
COMPS,ioos:station:USF.COMPS:BGC:1,2014-12-01T15:48:00Z,26.4040,-81.8810,49.44,1111122 
COMPS,ioos:station:USF.COMPS:BGC:1,2014-12-01T15:54:00Z,26.4040,-81.8810,47.93,1111122 
COMPS,ioos:station:USF.COMPS:BGC:1,2014-12-01T16:00:00Z,26.4040,-81.8810,48.15,1111122 
COMPS,ioos:station:USF.COMPS:BGC:1,2014-12-01T16:06:00Z,26.4040,-81.8810,46.0,1111122 
COMPS,ioos:station:USF.COMPS:BGC:1,2014-12-01T16:12:00Z,26.4040,-81.8810,47.38,1111122 
COMPS,ioos:station:USF.COMPS:BGC:1,2014-12-01T16:18:00Z,26.4040,-81.8810,46.39,1111122 
COMPS,ioos:station:USF.COMPS:BGC:1,2014-12-01T16:24:00Z,26.4040,-81.8810,44.54,1111122 
COMPS,ioos:station:USF.COMPS:BGC:1,2014-12-01T16:30:00Z,26.4040,-81.8810,41.92,1111122 
COMPS,ioos:station:USF.COMPS:BGC:1,2014-12-01T16:36:00Z,26.4040,-81.8810,41.8,1111122 
COMPS,ioos:station:USF.COMPS:BGC:1,2014-12-01T16:42:00Z,26.4040,-81.8810,41.98,1111122 
COMPS,ioos:station:USF.COMPS:BGC:1,2014-12-01T16:48:00Z,26.4040,-81.8810,41.78,1111122 
COMPS,ioos:station:USF.COMPS:BGC:1,2014-12-01T16:54:00Z,26.4040,-81.8810,39.83,1111122 
COMPS,ioos:station:USF.COMPS:BGC:1,2014-12-01T17:00:00Z,26.4040,-81.8810,41.36,1111122 
COMPS,ioos:station:USF.COMPS:BGC:1,2014-12-01T17:06:00Z,26.4040,-81.8810,41.53,1111122 
COMPS,ioos:station:USF.COMPS:BGC:1,2014-12-01T17:12:00Z,26.4040,-81.8810,41.16,1111122 
COMPS,ioos:station:USF.COMPS:BGC:1,2014-12-01T17:18:00Z,26.4040,-81.8810,42.05,1111122 
COMPS,ioos:station:USF.COMPS:BGC:1,2014-12-01T17:24:00Z,26.4040,-81.8810,40.02,1111122 
COMPS,ioos:station:USF.COMPS:BGC:1,2014-12-01T17:30:00Z,26.4040,-81.8810,38.05,1111122 
COMPS,ioos:station:USF.COMPS:BGC:1,2014-12-01T17:36:00Z,26.4040,-81.8810,38.01,1111122 
COMPS,ioos:station:USF.COMPS:BGC:1,2014-12-01T17:42:00Z,26.4040,-81.8810,43.3,1111122 
COMPS,ioos:station:USF.COMPS:BGC:1,2014-12-01T17:48:00Z,26.4040,-81.8810,42.23,1111122 
COMPS,ioos:station:USF.COMPS:BGC:1,2014-12-01T17:54:00Z,26.4040,-81.8810,40.11,1111122 
COMPS,ioos:station:USF.COMPS:BGC:1,2014-12-01T18:00:00Z,26.4040,-81.8810,40.19,1111122 
COMPS,ioos:station:USF.COMPS:BGC:1,2014-12-01T18:06:00Z,26.4040,-81.8810,40.61,1111122 
COMPS,ioos:station:USF.COMPS:BGC:1,2014-12-01T18:12:00Z,26.4040,-81.8810,39.54,1111122 
COMPS,ioos:station:USF.COMPS:BGC:1,2014-12-01T18:18:00Z,26.4040,-81.8810,41.8,1111122 
COMPS,ioos:station:USF.COMPS:BGC:1,2014-12-01T18:24:00Z,26.4040,-81.8810,45.74,1111122 
COMPS,ioos:station:USF.COMPS:BGC:1,2014-12-01T18:30:00Z,26.4040,-81.8810,44.27,1111122 
COMPS,ioos:station:USF.COMPS:BGC:1,2014-12-01T18:36:00Z,26.4040,-81.8810,43.15,1111122 
COMPS,ioos:station:USF.COMPS:BGC:1,2014-12-01T18:42:00Z,26.4040,-81.8810,43.05,1111122 
COMPS,ioos:station:USF.COMPS:BGC:1,2014-12-01T18:48:00Z,26.4040,-81.8810,43.48,1111122 
COMPS,ioos:station:USF.COMPS:BGC:1,2014-12-01T18:54:00Z,26.4040,-81.8810,42.95,1111122 
COMPS,ioos:station:USF.COMPS:BGC:1,2014-12-01T19:00:00Z,26.4040,-81.8810,43.04,1111122 
COMPS,ioos:station:USF.COMPS:BGC:1,2014-12-01T19:06:00Z,26.4040,-81.8810,42.94,1111122 
COMPS,ioos:station:USF.COMPS:BGC:1,2014-12-01T19:12:00Z,26.4040,-81.8810,42.29,1111122 
COMPS,ioos:station:USF.COMPS:BGC:1,2014-12-01T19:18:00Z,26.4040,-81.8810,41.37,1111122 
COMPS,ioos:station:USF.COMPS:BGC:1,2014-12-01T19:24:00Z,26.4040,-81.8810,40.44,1111122 
COMPS,ioos:station:USF.COMPS:BGC:1,2014-12-01T19:30:00Z,26.4040,-81.8810,43.09,1111122 
COMPS,ioos:station:USF.COMPS:BGC:1,2014-12-01T19:36:00Z,26.4040,-81.8810,44.28,1111122 
COMPS,ioos:station:USF.COMPS:BGC:1,2014-12-01T19:42:00Z,26.4040,-81.8810,44.18,1111122 
COMPS,ioos:station:USF.COMPS:BGC:1,2014-12-01T19:48:00Z,26.4040,-81.8810,43.79,1111122 
COMPS,ioos:station:USF.COMPS:BGC:1,2014-12-01T19:54:00Z,26.4040,-81.8810,43.17,1111122 
COMPS,ioos:station:USF.COMPS:BGC:1,2014-12-01T20:00:00Z,26.4040,-81.8810,42.92,1111122 
COMPS,ioos:station:USF.COMPS:BGC:1,2014-12-01T20:06:00Z,26.4040,-81.8810,42.4,1111122 
COMPS,ioos:station:USF.COMPS:BGC:1,2014-12-01T20:12:00Z,26.4040,-81.8810,43.84,1111122 
COMPS,ioos:station:USF.COMPS:BGC:1,2014-12-01T20:18:00Z,26.4040,-81.8810,43.87,1111122 
COMPS,ioos:station:USF.COMPS:BGC:1,2014-12-01T20:24:00Z,26.4040,-81.8810,43.01,1111122 
COMPS,ioos:station:USF.COMPS:BGC:1,2014-12-01T20:30:00Z,26.4040,-81.8810,41.22,1111122 
COMPS,ioos:station:USF.COMPS:BGC:1,2014-12-01T20:36:00Z,26.4040,-81.8810,43.1,1111122 
COMPS,ioos:station:USF.COMPS:BGC:1,2014-12-01T20:42:00Z,26.4040,-81.8810,44.74,1111122 
COMPS,ioos:station:USF.COMPS:BGC:1,2014-12-01T20:48:00Z,26.4040,-81.8810,44.66,1111122 
COMPS,ioos:station:USF.COMPS:BGC:1,2014-12-01T20:54:00Z,26.4040,-81.8810,44.28,1111122 
COMPS,ioos:station:USF.COMPS:BGC:1,2014-12-01T21:00:00Z,26.4040,-81.8810,43.11,1111122 
COMPS,ioos:station:USF.COMPS:BGC:1,2014-12-01T21:06:00Z,26.4040,-81.8810,43.21,1111122 
COMPS,ioos:station:USF.COMPS:BGC:1,2014-12-01T21:12:00Z,26.4040,-81.8810,44.12,1111122 
COMPS,ioos:station:USF.COMPS:BGC:1,2014-12-01T21:18:00Z,26.4040,-81.8810,44.22,1111122 
COMPS,ioos:station:USF.COMPS:BGC:1,2014-12-01T21:24:00Z,26.4040,-81.8810,44.35,1111122 
COMPS,ioos:station:USF.COMPS:BGC:1,2014-12-01T21:30:00Z,26.4040,-81.8810,44.53,1111122 
COMPS,ioos:station:USF.COMPS:BGC:1,2014-12-01T21:36:00Z,26.4040,-81.8810,45.24,1111122 
COMPS,ioos:station:USF.COMPS:BGC:1,2014-12-01T21:42:00Z,26.4040,-81.8810,44.49,1111122 
COMPS,ioos:station:USF.COMPS:BGC:1,2014-12-01T21:48:00Z,26.4040,-81.8810,45.43,1111122 
COMPS,ioos:station:USF.COMPS:BGC:1,2014-12-01T21:54:00Z,26.4040,-81.8810,47.01,1111122 
COMPS,ioos:station:USF.COMPS:BGC:1,2014-12-01T22:00:00Z,26.4040,-81.8810,48.73,1111122 
COMPS,ioos:station:USF.COMPS:BGC:1,2014-12-01T22:06:00Z,26.4040,-81.8810,50.37,1111122 
COMPS,ioos:station:USF.COMPS:BGC:1,2014-12-01T22:12:00Z,26.4040,-81.8810,51.09,1111122 
COMPS,ioos:station:USF.COMPS:BGC:1,2014-12-01T22:18:00Z,26.4040,-81.8810,51.37,1111122 
COMPS,ioos:station:USF.COMPS:BGC:1,2014-12-01T22:24:00Z,26.4040,-81.8810,52.67,1111122 
COMPS,ioos:station:USF.COMPS:BGC:1,2014-12-01T22:30:00Z,26.4040,-81.8810,53.36,1111122 
COMPS,ioos:station:USF.COMPS:BGC:1,2014-12-01T22:36:00Z,26.4040,-81.8810,53.73,1111122 
COMPS,ioos:station:USF.COMPS:BGC:1,2014-12-01T22:42:00Z,26.4040,-81.8810,54.76,1111122 
COMPS,ioos:station:USF.COMPS:BGC:1,2014-12-01T22:48:00Z,26.4040,-81.8810,54.61,1111122 
COMPS,ioos:station:USF.COMPS:BGC:1,2014-12-01T22:54:00Z,26.4040,-81.8810,55.17,1111122 
COMPS,ioos:station:USF.COMPS:BGC:1,2014-12-01T23:00:00Z,26.4040,-81.8810,55.66,1111122 
COMPS,ioos:station:USF.COMPS:BGC:1,2014-12-01T23:06:00Z,26.4040,-81.8810,56.17,1111122 
COMPS,ioos:station:USF.COMPS:BGC:1,2014-12-01T23:12:00Z,26.4040,-81.8810,56.35,1111122 
COMPS,ioos:station:USF.COMPS:BGC:1,2014-12-01T23:18:00Z,26.4040,-81.8810,57.4,1111122 
COMPS,ioos:station:USF.COMPS:BGC:1,2014-12-01T23:24:00Z,26.4040,-81.8810,58.42,1111122 
COMPS,ioos:station:USF.COMPS:BGC:1,2014-12-01T23:30:00Z,26.4040,-81.8810,59.46,1111122 
COMPS,ioos:station:USF.COMPS:BGC:1,2014-12-01T23:36:00Z,26.4040,-81.8810,59.84,1111122 
COMPS,ioos:station:USF.COMPS:BGC:1,2014-12-01T23:42:00Z,26.4040,-81.8810,60.35,1111122 
COMPS,ioos:station:USF.COMPS:BGC:1,2014-12-01T23:48:00Z,26.4040,-81.8810,61.13,1111122 
COMPS,ioos:station:USF.COMPS:BGC:1,2014-12-01T23:54:00Z,26.4040,-81.8810,61.87,1111122 
COMPS,ioos:station:USF.COMPS:BGC:1,2014-12-02T00:00:00Z,26.4040,-81.8810,62.81,1111122 
COMPS,ioos:station:USF.COMPS:BGC:1,2014-12-02T00:06:00Z,26.4040,-81.8810,61.31,1111122 
COMPS,ioos:station:USF.COMPS:BGC:1,2014-12-02T00:12:00Z,26.4040,-81.8810,63.58,1111122 
COMPS,ioos:station:USF.COMPS:BGC:1,2014-12-02T00:18:00Z,26.4040,-81.8810,63.88,1111122 
COMPS,ioos:station:USF.COMPS:BGC:1,2014-12-02T00:24:00Z,26.4040,-81.8810,64.21,1111122 
COMPS,ioos:station:USF.COMPS:BGC:1,2014-12-02T00:30:00Z,26.4040,-81.8810,64.4,1111122 
COMPS,ioos:station:USF.COMPS:BGC:1,2014-12-02T00:36:00Z,26.4040,-81.8810,64.9,1111122 
COMPS,ioos:station:USF.COMPS:BGC:1,2014-12-02T00:42:00Z,26.4040,-81.8810,64.97,1111122 
COMPS,ioos:station:USF.COMPS:BGC:1,2014-12-02T00:48:00Z,26.4040,-81.8810,65.12,1111122 
COMPS,ioos:station:USF.COMPS:BGC:1,2014-12-02T00:54:00Z,26.4040,-81.8810,65.36,1111122 
COMPS,ioos:station:USF.COMPS:BGC:1,2014-12-02T01:00:00Z,26.4040,-81.8810,65.95,1111122 
COMPS,ioos:station:USF.COMPS:BGC:1,2014-12-02T01:06:00Z,26.4040,-81.8810,66.84,1111122 
COMPS,ioos:station:USF.COMPS:BGC:1,2014-12-02T01:12:00Z,26.4040,-81.8810,69.77,1111122 
COMPS,ioos:station:USF.COMPS:BGC:1,2014-12-02T01:18:00Z,26.4040,-81.8810,71.93,1111122 
COMPS,ioos:station:USF.COMPS:BGC:1,2014-12-02T01:24:00Z,26.4040,-81.8810,73.52,1111122 
COMPS,ioos:station:USF.COMPS:BGC:1,2014-12-02T01:30:00Z,26.4040,-81.8810,74.59,1111122 
COMPS,ioos:station:USF.COMPS:BGC:1,2014-12-02T01:36:00Z,26.4040,-81.8810,74.67,1111122 
COMPS,ioos:station:USF.COMPS:BGC:1,2014-12-02T01:42:00Z,26.4040,-81.8810,73.58,1111122 
COMPS,ioos:station:USF.COMPS:BGC:1,2014-12-02T01:48:00Z,26.4040,-81.8810,73.4,1111122 
COMPS,ioos:station:USF.COMPS:BGC:1,2014-12-02T01:54:00Z,26.4040,-81.8810,74.05,1111122 
COMPS,ioos:station:USF.COMPS:BGC:1,2014-12-02T02:00:00Z,26.4040,-81.8810,73.75,1111122 
COMPS,ioos:station:USF.COMPS:BGC:1,2014-12-02T02:06:00Z,26.4040,-81.8810,73.64,1111122 
COMPS,ioos:station:USF.COMPS:BGC:1,2014-12-02T02:12:00Z,26.4040,-81.8810,74.35,1111122 
COMPS,ioos:station:USF.COMPS:BGC:1,2014-12-02T02:18:00Z,26.4040,-81.8810,76.37,1111122 
COMPS,ioos:station:USF.COMPS:BGC:1,2014-12-02T02:24:00Z,26.4040,-81.8810,78.66,1111122 
COMPS,ioos:station:USF.COMPS:BGC:1,2014-12-02T02:30:00Z,26.4040,-81.8810,80.51,1111122 
COMPS,ioos:station:USF.COMPS:BGC:1,2014-12-02T02:36:00Z,26.4040,-81.8810,85.59,1111122 
COMPS,ioos:station:USF.COMPS:BGC:1,2014-12-02T02:42:00Z,26.4040,-81.8810,89.33,1111122 
COMPS,ioos:station:USF.COMPS:BGC:1,2014-12-02T02:48:00Z,26.4040,-81.8810,91.38,1111122 
COMPS,ioos:station:USF.COMPS:BGC:1,2014-12-02T02:54:00Z,26.4040,-81.8810,94.79,1111122 
COMPS,ioos:station:USF.COMPS:BGC:1,2014-12-02T03:00:00Z,26.4040,-81.8810,95.65,1111122 
COMPS,ioos:station:USF.COMPS:BGC:1,2014-12-02T03:06:00Z,26.4040,-81.8810,95.5,1111122 